| time (UTC) | temp C | wind direction | speed KPH | gust KPH | rain 1hr cm | rain 24hr cm | rain mn cm | humidity % | barometer mb |
| 20260504001803 | 8 | 301 | 1.6 | 6.4 | 0.00 | 0.15 | 0.03 | 96 | 978.0 |
| 20260504000904 | 8 | 325 | 4.8 | 8.0 | 0.03 | 0.15 | 0.03 | 97 | 977.9 |
| 20260504000005 | 8 | 310 | 1.6 | 11.3 | 0.03 | 0.15 | 0.03 | 97 | 978.0 |
| 20260503235403 | 8 | 321 | 3.2 | 11.3 | 0.03 | 0.15 | 0.03 | 97 | 978.1 |
| 20260503234505 | 8 | 314 | 3.2 | 9.7 | 0.03 | 0.15 | 0.03 | 97 | 978.1 |
| 20260503233606 | 8 | 317 | 1.6 | 9.7 | 0.03 | 0.15 | 0.03 | 96 | 978.2 |
| 20260503232706 | 8 | 335 | 0.0 | 4.8 | 0.05 | 0.15 | 0.03 | 94 | 978.3 |
| 20260503231803 | 9 | 316 | 3.2 | 4.8 | 0.05 | 0.15 | 0.03 | 93 | 978.4 |
| 20260503230905 | 9 | 355 | 0.0 | 14.5 | 0.03 | 0.13 | 0.00 | 90 | 978.5 |
| 20260503230007 | 10 | 321 | 6.4 | 19.3 | 0.03 | 0.13 | 0.00 | 88 | 978.5 |
| 20260503225405 | 10 | 323 | 3.2 | 19.3 | 0.03 | 0.13 | 0.13 | 87 | 978.5 |
| 20260503224506 | 10 | 289 | 8.0 | 14.5 | 0.03 | 0.13 | 0.13 | 86 | 978.5 |
| 20260503223605 | 10 | 329 | 3.2 | 17.7 | 0.03 | 0.13 | 0.13 | 88 | 978.5 |
| 20260503222703 | 10 | 315 | 8.0 | 14.5 | 0.03 | 0.10 | 0.10 | 88 | 978.6 |
| 20260503221805 | 10 | 322 | 3.2 | 11.3 | 0.03 | 0.10 | 0.10 | 90 | 978.7 |
| 20260503220903 | 10 | 311 | 3.2 | 14.5 | 0.03 | 0.10 | 0.10 | 89 | 978.7 |
| 20260503220005 | 10 | 316 | 1.6 | 22.5 | 0.03 | 0.10 | 0.10 | 88 | 978.8 |
| 20260503215403 | 10 | 308 | 4.8 | 22.5 | 0.03 | 0.10 | 0.10 | 88 | 978.9 |
| 20260503214505 | 10 | 307 | 3.2 | 12.9 | 0.03 | 0.10 | 0.10 | 90 | 978.7 |
| 20260503213605 | 10 | 316 | 1.6 | 17.7 | 0.03 | 0.10 | 0.10 | 92 | 978.8 |
| 20260503212703 | 9 | 306 | 6.4 | 12.9 | 0.00 | 0.05 | 0.05 | 94 | 978.7 |
| 20260503211803 | 8 | 307 | 3.2 | 11.3 | 0.00 | 0.05 | 0.05 | 95 | 978.5 |
| 20260503210905 | 8 | 324 | 3.2 | 12.9 | 0.00 | 0.05 | 0.05 | 96 | 978.8 |
| 20260503210006 | 8 | 303 | 1.6 | 11.3 | 0.00 | 0.05 | 0.05 | 96 | 978.8 |
| 20260503205404 | 8 | 313 | 3.2 | 11.3 | 0.00 | 0.05 | 0.05 | 96 | 978.9 |
| 20260503204505 | 8 | 302 | 3.2 | 12.9 | 0.00 | 0.05 | 0.05 | 96 | 979.0 |
| 20260503203606 | 8 | 326 | 3.2 | 12.9 | 0.03 | 0.05 | 0.05 | 96 | 979.1 |
| 20260503202706 | 8 | 327 | 3.2 | 16.1 | 0.03 | 0.05 | 0.05 | 96 | 979.1 |
| 20260503201803 | 8 | 318 | 4.8 | 16.1 | 0.03 | 0.05 | 0.05 | 95 | 979.3 |
| 20260503200903 | 8 | 323 | 3.2 | 12.9 | 0.03 | 0.05 | 0.05 | 94 | 979.4 |
| 20260503200006 | 8 | 335 | 6.4 | 14.5 | 0.05 | 0.05 | 0.05 | 94 | 979.6 |
| 20260503195405 | 8 | 324 | 6.4 | 14.5 | 0.05 | 0.05 | 0.05 | 93 | 979.5 |
| 20260503194505 | 8 | 306 | 6.4 | 19.3 | 0.05 | 0.05 | 0.05 | 91 | 979.5 |
| 20260503193605 | 8 | 256 | 4.8 | 17.7 | 0.03 | 0.03 | 0.03 | 88 | 979.8 |
| 20260503192703 | 8 | 267 | 6.4 | 24.1 | 0.03 | 0.03 | 0.03 | 84 | 979.8 |
| 20260503191805 | 9 | 305 | 9.7 | 29.0 | 0.03 | 0.03 | 0.03 | 80 | 979.9 |
| 20260503190905 | 10 | 313 | 16.1 | 33.8 | 0.03 | 0.03 | 0.03 | 71 | 980.0 |
| 20260503190005 | 10 | 284 | 12.9 | 33.8 | 0.00 | 0.00 | 0.00 | 68 | 980.1 |
| 20260503185616 | 10 | 294 | 11.3 | 24.1 | 0.00 | 0.00 | 0.00 | 69 | 980.1 |
| 20260503184504 | 10 | 278 | 3.2 | 8.0 | 0.00 | 0.00 | 0.00 | 73 | 980.3 |
| 20260503183603 | 10 | 316 | 0.0 | 22.5 | 0.00 | 0.00 | 0.00 | 68 | 980.3 |
| 20260503182705 | 11 | 289 | 12.9 | 27.4 | 0.00 | 0.00 | 0.00 | 63 | 980.5 |
| 20260503181806 | 12 | 310 | 3.2 | 24.1 | 0.00 | 0.00 | 0.00 | 50 | 980.6 |
| 20260503180906 | 12 | 339 | 8.0 | 25.7 | 0.00 | 0.00 | 0.00 | 48 | 980.5 |
| 20260503180007 | 12 | 301 | 9.7 | 20.9 | 0.00 | 0.00 | 0.00 | 46 | 980.3 |
| 20260503175406 | 13 | 304 | 3.2 | 16.1 | 0.00 | 0.00 | 0.00 | 46 | 980.3 |
| 20260503174714 | 12 | 293 | 6.4 | 22.5 | 0.00 | 0.00 | 0.00 | 47 | 980.4 |
| 20260503173606 | 12 | 338 | 12.9 | 25.7 | 0.00 | 0.00 | 0.00 | 46 | 980.7 |
| 20260503172703 | 12 | 299 | 3.2 | 17.7 | 0.00 | 0.00 | 0.00 | 47 | 980.5 |
| 20260503171803 | 12 | 353 | 6.4 | 27.4 | 0.00 | 0.00 | 0.00 | 46 | 980.6 |
| 20260503170905 | 13 | 297 | 6.4 | 22.5 | 0.00 | 0.00 | 0.00 | 44 | 980.8 |
| 20260503140218 | 11 | 298 | 9.7 | 19.3 | 0.00 | 0.00 | 0.00 | 41 | 982.9 |
| 20260503130906 | 9 | 317 | 8.0 | 14.5 | 0.00 | 0.00 | 0.00 | 53 | 983.5 |
| 20260503100215 | 0 | 316 | 3.2 | 6.4 | 0.00 | 0.00 | 0.00 | 78 | 984.4 |
| 20260503080903 | 0 | 331 | 0.0 | 6.4 | 0.00 | 0.00 | 0.00 | 72 | 985.0 |
| 20260503072705 | 0 | 300 | 1.6 | 6.4 | 0.00 | 0.00 | 0.00 | 71 | 985.1 |
| 20260503071804 | 0 | 330 | 1.6 | 3.2 | 0.00 | 0.00 | 0.00 | 71 | 985.1 |
| 20260503070904 | 0 | 251 | 0.0 | 4.8 | 0.00 | 0.00 | 0.00 | 70 | 985.2 |
| 20260503054505 | 0 | 319 | 1.6 | 6.4 | 0.00 | 0.00 | 0.00 | 66 | 985.6 |
| 20260503053814 | 0 | 315 | 1.6 | 6.4 | 0.00 | 0.00 | 0.00 | 66 | 985.9 |
| 20260503052705 | 0 | 359 | 0.0 | 6.4 | 0.00 | 0.00 | 0.00 | 66 | 985.9 |
| 20260503051803 | 0 | 336 | 3.2 | 6.4 | 0.00 | 0.00 | 0.00 | 67 | 986.0 |
| 20260503051116 | 0 | 343 | 1.6 | 6.4 | 0.00 | 0.00 | 0.00 | 68 | 986.1 |
| 20260503050003 | 0 | 315 | 3.2 | 3.2 | 0.00 | 0.00 | 0.00 | 68 | 986.2 |
| 20260503045615 | 0 | 323 | 0.0 | 3.2 | 0.00 | 0.00 | 0.00 | 69 | 986.2 |
| 20260503044503 | 0 | 327 | 0.0 | 6.4 | 0.00 | 0.00 | 0.00 | 71 | 986.3 |
| 20260503043606 | 0 | 354 | 3.2 | 8.0 | 0.00 | 0.00 | 0.00 | 71 | 986.4 |
| 20260503042703 | 0 | 359 | 3.2 | 6.4 | 0.00 | 0.00 | 0.00 | 71 | 986.4 |
| 20260503042014 | 0 | 9 | 3.2 | 4.8 | 0.00 | 0.00 | 0.00 | 72 | 986.5 |
| 20260503040903 | 0 | 32 | 1.6 | 3.2 | 0.00 | 0.00 | 0.00 | 72 | 986.5 |
| 20260503040005 | 0 | 360 | 1.6 | 4.8 | 0.00 | 0.00 | 0.00 | 73 | 986.6 |
| 20260503035403 | 0 | 38 | 1.6 | 4.8 | 0.00 | 0.00 | 0.00 | 72 | 986.6 |
| 20260503034504 | 0 | 12 | 1.6 | 4.8 | 0.00 | 0.00 | 0.00 | 71 | 986.6 |
| 20260503033815 | 0 | 327 | 3.2 | 4.8 | 0.00 | 0.00 | 0.00 | 71 | 986.7 |
| 20260503032705 | 0 | 315 | 0.0 | 6.4 | 0.00 | 0.00 | 0.00 | 75 | 986.8 |
| 20260503032015 | 0 | 315 | 0.0 | 3.2 | 0.00 | 0.00 | 0.00 | 75 | 986.8 |
| 20260503030905 | 0 | 333 | 0.0 | 3.2 | 0.00 | 0.00 | 0.00 | 75 | 986.7 |
| 20260503030006 | 0 | 0 | 0.0 | 0.0 | 0.00 | 0.00 | 0.00 | 75 | 986.8 |
| 20260503025403 | 0 | 0 | 0.0 | 0.0 | 0.00 | 0.00 | 0.00 | 75 | 986.8 |
| 20260503024503 | 0 | 0 | 0.0 | 0.0 | 0.00 | 0.00 | 0.00 | 74 | 986.9 |
| 20260503023603 | 0 | 0 | 0.0 | 0.0 | 0.00 | 0.00 | 0.00 | 73 | 987.0 |
| 20260503022919 | 0 | 0 | 0.0 | 0.0 | 0.00 | 0.00 | 0.00 | 72 | 986.9 |
| 20260503021803 | 0 | 0 | 0.0 | 0.0 | 0.00 | 0.00 | 0.00 | 71 | 987.2 |
| 20260503020906 | 1 | 0 | 0.0 | 0.0 | 0.00 | 0.00 | 0.00 | 69 | 987.0 |
| 20260503020006 | 1 | 0 | 0.0 | 0.0 | 0.00 | 0.00 | 0.00 | 68 | 987.0 |
| 20260503015404 | 1 | 0 | 0.0 | 0.0 | 0.00 | 0.00 | 0.00 | 68 | 986.9 |
| 20260503014505 | 1 | 315 | 0.0 | 3.2 | 0.00 | 0.00 | 0.00 | 66 | 986.8 |
| 20260503013605 | 1 | 294 | 1.6 | 3.2 | 0.00 | 0.00 | 0.00 | 63 | 986.9 |
| 20260503012703 | 2 | 12 | 0.0 | 4.8 | 0.00 | 0.00 | 0.00 | 60 | 986.8 |
| 20260503011806 | 2 | 11 | 1.6 | 6.4 | 0.00 | 0.00 | 0.00 | 58 | 986.9 |
| 20260503011119 | 2 | 334 | 1.6 | 6.4 | 0.00 | 0.00 | 0.00 | 56 | 986.8 |
| 20260503010005 | 3 | 322 | 3.2 | 6.4 | 0.00 | 0.00 | 0.00 | 53 | 986.7 |
| 20260503005404 | 3 | 315 | 0.0 | 8.0 | 0.00 | 0.00 | 0.00 | 52 | 986.8 |
| 20260503004503 | 3 | 318 | 3.2 | 12.9 | 0.00 | 0.00 | 0.00 | 50 | 986.7 |
| 20260503003608 | 3 | 312 | 3.2 | 6.4 | 0.00 | 0.00 | 0.00 | 49 | 986.8 |